www.pogodaiklimat.ru

Погода и климат >> Архив погоды >> Бразилия >> Пиауи >> Пирипири


ПОГОДА в Пирипири

  • Прогноз погоды в Пирипири
  • Монитор погоды в Пирипири

АРХИВ ПОГОДЫ в Пирипири

Время (UTC), дата Ветер
(напр.,м/с)
 
Видим.   Явления Облачность Т
(С)
Тd
(С)
f
(%)
Тe
(С)
Тes
(С)
Комфортность P
(гПа)
Po
(гПа)
Тmin
(С)
Tmax
(С)
R
(мм)
R24
(мм)
S
(см)
04 17.02 В 1
{2}
н/о н/о +25.0 +23.8 93 +34 +34 очень
душно
1010.8 992.7
05 17.02 ЮЗ 1
{2}
н/о н/о +25.0 +23.8 93 +34 +34 очень
душно
1010.3 992.2
06 17.02 штиль 0
{1}
н/о н/о +24.9 +23.8 94 +34 +34 очень
душно
1009.6 991.5
07 17.02 ЮЗ 1
{1}
н/о н/о +24.8 +23.7 94 +34 +34 очень
душно
1010.0 991.9
08 17.02 Ю 1
{1}
н/о н/о +24.7 +23.7 94 +34 +34 очень
душно
1010.6 992.5
09 17.02 Ю 1
{2}
н/о н/о +24.7 +23.7 94 +34 +34 очень
душно
1011.0 992.8
10 17.02 Ю 1
{2}
н/о н/о +24.8 +23.9 95 +34 +34 очень
душно
1012.1 993.9
11 17.02 ЮЗ 1
{1}
н/о н/о +25.9 +24.8 94 +37 +37 очень
душно
1012.5 994.4
12 17.02 ЮЗ 1
{2}
н/о н/о +28.4 +24.5 79 +40 +40 очень
душно
1012.9 994.9
13 17.02 З 1
{2}
н/о н/о +29.6 +25.6 79 +44 +44 опасность
перегрева
1013.0 995.1
14 17.02 СЗ 1
{2}
н/о н/о +29.8 +25.3 77 +44 +44 опасность
перегрева
1012.9 995.0 0.2
15 17.02 В 1
{2}
н/о н/о +32.3 +24.3 63 +45 +45 опасность
перегрева
1011.4 993.7
16 17.02 В 1
{3}
н/о н/о +33.0 +23.4 57 +44 +44 опасность
перегрева
1010.0 992.4
17 17.02 СВ 1
{3}
н/о н/о +33.4 +23.3 56 +44 +44 опасность
перегрева
1008.7 991.1
18 17.02 СЗ 3
{4}
н/о н/о +29.0 +24.7 78 +41 +41 опасность
перегрева
1008.6 990.7
19 17.02 С 2
{5}
н/о н/о +27.5 +25.1 87 +40 +40 очень
душно
1010.4 992.4
20 17.02 С 2
{8}
н/о н/о +24.1 +23.1 94 +32 +32 очень
душно
1011.3 993.1 13
21 17.02 Ю 1
{4}
н/о н/о +23.9 +22.9 94 +32 +32 очень
душно
1011.4 993.2 1
22 17.02 В 1
{2}
н/о н/о +24.2 +23.1 94 +32 +32 очень
душно
1010.9 992.7 2
23 17.02 ЮЗ 1
{2}
н/о н/о +24.2 +23.1 94 +32 +32 очень
душно
1011.7 993.5
00 18.02 штиль 0
{1}
н/о н/о +24.2 +23.1 94 +32 +32 очень
душно
1013.3 995.1
01 18.02 З 1
{2}
н/о н/о +24.3 +23.2 94 +33 +33 очень
душно
1013.6 995.4
02 18.02 ЮЗ 1
{2}
н/о н/о +24.2 +23.2 94 +32 +32 очень
душно
1013.3 995.1
03 18.02 Ю 1
{2}
н/о н/о +24.1 +23.1 94 +32 +32 очень
душно
1012.4 994.2
04 18.02 Ю 1
{2}
н/о н/о +24.1 +23.1 94 +32 +32 очень
душно
1012.0 993.8
05 18.02 Ю 1
{2}
н/о н/о +24.2 +23.3 95 +32 +32 очень
душно
1011.7 993.5
06 18.02 Ю 1
{2}
н/о н/о +24.4 +23.4 94 +33 +33 очень
душно
1010.8 992.6
07 18.02 Ю 1
{2}
н/о н/о +24.4 +23.4 94 +33 +33 очень
душно
1010.6 992.4
08 18.02 Ю 1
{2}
н/о н/о +24.5 +23.5 94 +33 +33 очень
душно
1011.1 992.9
09 18.02 Ю 1
{2}
н/о н/о +24.3 +23.4 95 +33 +33 очень
душно
1011.2 993.0
11 18.02 ЮВ 1
{2}
н/о н/о +27.2 +24.1 83 +38 +38 очень
душно
1013.0 995.0
12 18.02 Ю 1
{2}
н/о н/о +28.5 +24.2 78 +40 +40 очень
душно
1013.4 995.4
13 18.02 Ю 1
{2}
н/о н/о +30.2 +24.3 71 +42 +42 опасность
перегрева
1013.2 995.3
14 18.02 Ю 1
{2}
н/о н/о +31.8 +24.8 67 +45 +45 опасность
перегрева
1012.6 994.8 0.2
15 18.02 СВ 2
{3}
н/о н/о +31.6 +24.2 65 +44 +44 опасность
перегрева
1012.0 994.2
16 18.02 СВ 2
{3}
н/о н/о +33.3 +24.2 59 +45 +45 опасность
перегрева
1010.4 992.8
17 18.02 ЮВ 1
{3}
н/о н/о +34.0 +23.3 54 +45 +45 опасность
перегрева
1009.1 991.5
18 18.02 Ю 1
{5}
н/о н/о +29.4 +24.0 73 +41 +41 опасность
перегрева
1008.7 990.9
19 18.02 СЗ 1
{2}
н/о н/о +29.5 +24.7 75 +42 +42 опасность
перегрева
1008.1 990.3
20 18.02 С 3
{6}
н/о н/о +27.3 +24.3 84 +38 +38 очень
душно
1008.6 990.6
21 18.02 ЮВ 2
{5}
н/о н/о +25.4 +22.9 86 +34 +34 очень
душно
1009.6 991.5 0.6
22 18.02 Ю 1
{4}
н/о н/о +25.2 +23.2 89 +34 +34 очень
душно
1011.7 993.6
23 18.02 В 1
{2}
н/о н/о +25.3 +23.5 90 +34 +34 очень
душно
1012.5 994.4
00 19.02 ЮЗ 1
{2}
н/о н/о +25.3 +23.8 91 +34 +34 очень
душно
1012.9 994.7
01 19.02 штиль 0
{1}
н/о н/о +25.2 +23.9 93 +35 +35 очень
душно
1012.7 994.5
02 19.02 Ю 1
{1}
н/о н/о +25.1 +23.8 93 +34 +34 очень
душно
1013.1 994.9
03 19.02 В 1
{1}
н/о н/о +24.6 +23.5 94 +33 +33 очень
душно
1012.8 994.6 0.2
04 19.02 Ю 1
{1}
н/о н/о +24.5 +23.3 93 +33 +33 очень
душно
1011.9 993.7
05 19.02 Ю 1
{2}
н/о н/о +24.1 +23.0 94 +32 +32 очень
душно
1011.3 993.1
06 19.02 Ю 1
{2}
н/о н/о +24.1 +23.0 94 +32 +32 очень
душно
1011.0 992.8
07 19.02 Ю 1
{2}
н/о н/о +24.0 +22.9 94 +32 +32 очень
душно
1010.9 992.7
08 19.02 Ю 1
{2}
н/о н/о +24.0 +22.9 94 +32 +32 очень
душно
1011.7 993.5
09 19.02 Ю 1
{1}
н/о н/о +24.0 +22.9 94 +32 +32 очень
душно
1012.3 994.1
10 19.02 ЮВ 1
{2}
н/о н/о +25.2 +23.5 90 +34 +34 очень
душно
1012.9 994.7
11 19.02 Ю 1
{2}
н/о н/о +27.0 +23.6 82 +37 +37 очень
душно
1013.9 995.8
12 19.02 Ю 1
{2}
н/о н/о +29.3 +24.9 77 +42 +42 опасность
перегрева
1013.9 996.0
13 19.02 ЮЗ 1
{2}
н/о н/о +30.7 +23.9 67 +42 +42 опасность
перегрева
1013.8 996.0
14 19.02 С 1
{2}
н/о н/о +30.2 +24.6 72 +43 +43 опасность
перегрева
1013.3 995.4
15 19.02 СВ 1
{2}
н/о н/о +28.0 +25.3 85 +41 +41 опасность
перегрева
1012.4 994.4 2
16 19.02 Ю 1
{2}
н/о н/о +29.0 +24.5 77 +41 +41 опасность
перегрева
1011.1 993.2
17 19.02 Ю 1
{2}
н/о н/о +30.4 +24.0 69 +42 +42 опасность
перегрева
1010.0 992.2
18 19.02 СЗ 1
{2}
н/о н/о +29.7 +24.4 73 +42 +42 опасность
перегрева
1009.4 991.6
19 19.02 С 1
{5}
н/о н/о +24.9 +23.2 90 +33 +33 очень
душно
1010.1 992.0 5
20 19.02 ЮЗ 1
{2}
н/о н/о +25.5 +24.0 91 +35 +35 очень
душно
1009.0 990.9 2
21 19.02 С 1
{3}
н/о н/о +24.7 +23.3 92 +33 +33 очень
душно
1010.2 992.1
23 19.02 ЮВ 1
{2}
н/о н/о +25.1 +23.7 92 +34 +34 очень
душно
1010.8 992.7
00 20.02 СЗ 1
{2}
н/о н/о +24.6 +23.4 93 +33 +33 очень
душно
1011.6 993.4
01 20.02 В 1
{1}
н/о н/о +24.7 +23.6 94 +34 +34 очень
душно
1011.8 993.6
02 20.02 Ю 1
{2}
н/о н/о +24.4 +23.3 94 +33 +33 очень
душно
1012.5 994.3
03 20.02 В 1
{2}
н/о н/о +24.1 +23.0 94 +32 +32 очень
душно
1011.6 993.4
04 20.02 С 1
{1}
н/о н/о +24.2 +23.1 94 +32 +32 очень
душно
1010.7 992.5
05 20.02 Ю 1
{2}
н/о н/о +23.8 +22.7 94 +31 +31 очень
душно
1010.4 992.2
06 20.02 С 1
{2}
н/о н/о +24.1 +23.1 94 +32 +32 очень
душно
1010.4 992.2
07 20.02 С 1
{2}
н/о н/о +24.2 +23.2 94 +32 +32 очень
душно
1010.4 992.2
08 20.02
{2}
н/о н/о +24.2 +23.3 95 1010.8 992.6
09 20.02 С 1
{1}
н/о н/о +24.2 +23.3 95 +32 +32 очень
душно
1011.2 993.0
10 20.02 СВ 1
{1}
н/о н/о +24.3 +23.4 95 +33 +33 очень
душно
1012.1 993.9 0.2
11 20.02 штиль 0
{1}
н/о н/о +25.7 +24.7 94 +36 +36 очень
душно
1012.9 994.8
12 20.02 В 1
{1}
н/о н/о +28.3 +24.5 80 +40 +40 очень
душно
1013.0 995.0
13 20.02 В 1
{2}
н/о н/о +30.3 +24.4 71 +43 +43 опасность
перегрева
1012.3 994.5
14 20.02 СВ 1
{2}
н/о н/о +31.1 +23.9 66 +43 +43 опасность
перегрева
1011.5 993.7
15 20.02 В 1
{2}
н/о н/о +32.6 +23.3 58 +43 +43 опасность
перегрева
1010.8 993.1
16 20.02 З 1
{3}
н/о н/о +33.1 +24.8 62 +46 +46 опасность
перегрева
1009.6 992.0
17 20.02 З 2
{3}
н/о н/о +33.5 +22.6 53 +43 +43 опасность
перегрева
1008.2 990.6
18 20.02 СВ 1
{5}
н/о н/о +30.3 +23.8 68 +41 +41 опасность
перегрева
1007.7 989.9
19 20.02 С 2
{3}
н/о н/о +30.5 +23.9 68 +42 +42 опасность
перегрева
1007.3 989.6
20 20.02 В 1
{3}
н/о н/о +30.4 +22.4 62 +39 +39 очень
душно
1007.9 990.1
21 20.02 ЮВ 1
{2}
н/о н/о +28.0 +23.1 75 +38 +38 очень
душно
1007.9 990.0
22 20.02 Ю 1
{2}
н/о н/о +27.3 +23.3 79 +37 +37 очень
душно
1008.4 990.4
23 20.02 С 1
{1}
н/о н/о +26.7 +24.3 87 +37 +37 очень
душно
1009.3 991.3
00 21.02 СЗ 1
{2}
н/о н/о +26.4 +24.2 88 +37 +37 очень
душно
1010.1 992.1
01 21.02 С 1
{1}
н/о н/о +26.4 +24.7 90 +37 +37 очень
душно
1011.5 993.4
02 21.02 С 1
{2}
н/о н/о +26.0 +24.5 91 +36 +36 очень
душно
1011.0 992.9
03 21.02
{2}
н/о н/о +26.0 +24.7 93 1010.5 992.4
04 21.02 СВ 1
{2}
н/о н/о +25.8 +24.7 94 +37 +37 очень
душно
1009.9 991.8
05 21.02 С 1
{2}
н/о н/о +25.9 +24.8 94 +37 +37 очень
душно
1009.0 991.0
06 21.02 С 1
{2}
н/о н/о +25.9 +24.8 94 +37 +37 очень
душно
1009.4 991.3
07 21.02 С 1
{2}
н/о н/о +25.8 +24.7 94 +37 +37 очень
душно
1009.6 991.5
08 21.02 С 1
{2}
н/о н/о +25.7 +24.6 94 +36 +36 очень
душно
1010.2 992.1
09 21.02 С 1
{1}
н/о н/о +25.9 +24.8 94 +37 +37 очень
душно
1010.6 992.5
10 21.02 С 1
{2}
н/о н/о +27.0 +25.4 91 +39 +39 очень
душно
1010.8 992.8
11 21.02 С 1
{2}
н/о н/о +28.2 +25.4 85 +41 +41 опасность
перегрева
1011.6 993.6
12 21.02 СВ 1
{2}
н/о н/о +29.7 +24.7 75 +42 +42 опасность
перегрева
1012.0 994.1
13 21.02 В 2
{4}
н/о н/о +30.7 +24.4 69 +43 +43 опасность
перегрева
1012.2 994.4
14 21.02 С 1
{3}
н/о н/о +31.6 +23.8 63 +43 +43 опасность
перегрева
1011.7 993.9
15 21.02 СЗ 1
{2}
н/о н/о +32.0 +23.6 61 +43 +43 опасность
перегрева
1010.9 993.2
16 21.02 СЗ 1
{3}
н/о н/о +33.5 +25.3 62 +48 +48 опасность
перегрева
1009.2 991.6
17 21.02 СВ 1
{3}
н/о н/о +32.1 +23.9 62 +44 +44 опасность
перегрева
1008.2 990.5
18 21.02 З 1
{4}
н/о н/о +27.7 +24.9 85 +40 +40 очень
душно
1008.2 990.3
19 21.02 С 2
{5}
н/о н/о +26.0 +22.5 81 +34 +34 очень
душно
1008.4 990.4
20 21.02 Ю 1
{6}
н/о н/о +23.1 +21.5 91 +31 +31 очень
душно
1011.1 992.8 15
21 21.02 С 2
{3}
н/о н/о +22.5 +21.0 91 +29 +29 очень
душно
1011.4 993.1 0.2
22 21.02 СВ 2
{3}
н/о н/о +22.7 +21.0 90 +30 +30 очень
душно
1011.9 993.6
23 21.02 Ю 1
{3}
н/о н/о +23.0 +21.4 91 +31 +31 очень
душно
1011.6 993.3
01 22.02 С 1
{2}
н/о н/о +23.6 +22.3 92 +31 +31 очень
душно
1012.3 994.1
02 22.02 СЗ 1
{2}
н/о н/о +23.4 +22.3 94 +32 +32 очень
душно
1012.4 994.1
03 22.02 С 1
{2}
н/о н/о +23.5 +22.4 94 +31 +31 очень
душно
1011.9 993.7
04 22.02 С 1
{2}
н/о н/о +23.4 +22.4 94 +32 +32 очень
душно
1012.1 993.8
05 22.02 ЮВ 1
{1}
н/о н/о +23.7 +22.7 94 +31 +31 очень
душно
1011.3 993.1 0.4
06 22.02 ЮВ 1
{2}
н/о н/о +23.5 +22.5 94 +31 +31 очень
душно
1011.1 992.9
07 22.02 Ю 1
{1}
н/о н/о +23.5 +22.5 94 +31 +31 очень
душно
1011.1 992.9
08 22.02 Ю 1
{1}
н/о н/о +23.5 +22.5 94 +31 +31 очень
душно
1011.6 993.4
09 22.02 ЮВ 1
{1}
н/о н/о +23.8 +22.9 95 +32 +32 очень
душно
1012.4 994.2
10 22.02 штиль 0
{1}
н/о н/о +24.5 +23.5 94 +33 +33 очень
душно
1012.8 994.6
11 22.02 ЮЗ 1
{1}
н/о н/о +25.4 +24.4 94 +35 +35 очень
душно
1013.1 995.0
12 22.02 Ю 1
{1}
н/о н/о +26.4 +24.0 87 +37 +37 очень
душно
1013.5 995.4
13 22.02 З 1
{2}
н/о н/о +28.5 +24.9 81 +41 +41 опасность
перегрева
1013.8 995.8
14 22.02 З 1
{2}
н/о н/о +29.9 +25.7 78 +44 +44 опасность
перегрева
1013.3 995.4
15 22.02 СЗ 1
{3}
н/о н/о +31.0 +24.9 70 +44 +44 опасность
перегрева
1012.1 994.3
22 22.02 штиль 0
{2}
н/о н/о +24.5 +22.2 87 +32 +32 очень
душно
1011.9 993.7
23 22.02 З 1
{2}
н/о н/о +23.9 +22.3 91 +31 +31 очень
душно
1012.7 994.5
00 23.02 ЮЗ 1
{1}
н/о н/о +24.0 +22.5 91 +31 +31 очень
душно
1013.5 995.3
01 23.02 Ю 1
{2}
н/о н/о +24.0 +22.5 91 +31 +31 очень
душно
1014.2 995.9
02 23.02 Ю 1
{2}
н/о н/о +24.1 +22.6 91 +32 +32 очень
душно
1013.8 995.6
03 23.02 ЮВ 1
{1}
н/о н/о +24.1 +22.7 92 +32 +32 очень
душно
1013.3 995.1
04 23.02 штиль 0
{1}
н/о н/о +24.0 +22.6 92 +31 +31 очень
душно
1012.0 993.8
05 23.02 ЮВ 1
{1}
н/о н/о +24.1 +22.8 92 +32 +32 очень
душно
1011.8 993.6
06 23.02 Ю 1
{2}
н/о н/о +23.8 +22.6 93 +31 +31 очень
душно
1011.3 993.1
07 23.02 В 1
{1}
н/о н/о +23.6 +22.6 94 +31 +31 очень
душно
1010.8 992.6
08 23.02 В 1
{2}
н/о н/о +23.6 +22.6 94 +31 +31 очень
душно
1010.6 992.4
09 23.02 В 1
{1}
н/о н/о +23.7 +22.5 93 +31 +31 очень
душно
1010.7 992.5
10 23.02 СЗ 1
{1}
н/о н/о +24.4 +23.2 93 +33 +33 очень
душно
1011.5 993.3
11 23.02 штиль 0
{1}
н/о н/о +27.8 +24.1 80 +39 +39 очень
душно
1012.1 994.1
12 23.02 В 1
{2}
н/о н/о +29.5 +24.6 75 +42 +42 опасность
перегрева
1012.2 994.3
13 23.02 В 2
{3}
н/о н/о +30.6 +22.8 63 +40 +40 очень
душно
1012.0 994.2 0.2
14 23.02 В 2
{4}
н/о н/о +31.4 +23.1 61 +42 +42 опасность
перегрева
1011.6 993.8
15 23.02 В 2
{4}
н/о н/о +32.1 +23.2 59 +42 +42 опасность
перегрева
1010.5 992.8
16 23.02 СВ 2
{3}
н/о н/о +32.4 +22.7 57 +42 +42 опасность
перегрева
1008.9 991.2
17 23.02 Ю 3
{6}
н/о н/о +27.3 +23.3 79 +37 +37 очень
душно
1008.0 990.1 2
18 23.02 З 1
{6}
н/о н/о +29.7 +24.6 74 +42 +42 опасность
перегрева
1007.5 989.7 0.4
19 23.02 СЗ 3
{5}
н/о н/о +28.1 +23.6 77 +39 +39 очень
душно
1007.8 989.9
01 24.02 ЮВ 1
{2}
н/о н/о +23.7 +22.5 93 +31 +31 очень
душно
1012.5 994.3 0.6

 

Местоположение метеостанции Пирипири (Пиауи, Бразилия): широта -4.28 долгота -41.80 высота над уровнем моря 163 м.

В архиве по умолчанию представлена погода в Пирипири за последнюю неделю. Архивные данные за месяц целиком и за предыдущие месяцы, начиная с января 2011 года, Вы можете получить, выбрав интересующий диапазон дат из раскрывающегося списка и нажав кнопку "Ввод!".


*Определитесь, кто Вы:
робот инопланетянин человек

Внимание! Время в таблицах - всемирное. Для получения местного времени необходимо прибавить поправку, которая равна -3 ч.

Смотрите также архив погоды в соседних городах и на ближайших метеорологических станциях:

Погода в Эсперантине (Пиауи, Бразилия) (67 км)
Погода в Кастело-ду-Пьяуи (Пиауи, Бразилия) (123 км)
Погода в Парнаибе (Пиауи, Бразилия) (133 км)
Погода в Парнаибе (Пиауи, Бразилия) (135 км)
Погода в Терезине (Пиауи, Бразилия) (139 км)
Погода в Терезине (Пиауи, Бразилия) (141 км)
Погода в Кратеусе (Сеара, Бразилия) (161 км)
Погода в Кратеусе (Сеара, Бразилия) (161 км)
Погода в Собрале (Сеара, Бразилия) (171 км)
Погода в Собрале (Сеара, Бразилия) (173 км)

Пояснения к столбцам:

Ветер - указаны скорость ветра в м/с - средняя за 10 мин, порывы в срок и между сроками (в фигурных скобках) и направление, откуда дует ветер: С - северный, СВ - северо-восточный, В - восточный, ЮВ - юго-восточный, Ю - южный, ЮЗ - юго-западный, З - западный, СЗ - северо-западный.
Видимость - горизонтальная дальность видимости в метрах или километрах. При видимости от 1 до 10 км при отсутствии осадков обычно наблюдается дымка, при ухудшении видимости до 1 км и менее - туман. В сухую погоду видимость может ухудшаться дымом, пылью или мглою.
Явления - указаны атмосферные явления, наблюдавшиеся в срок или в последний час перед сроком; фигурными скобками обозначены явления, наблюдавшиеся между сроками (за 1-3 часа до срока); квадратными скобками обозначены град или гололедные отложения с указанием их диаметра в мм.
Облачность - указаны через наклонную черту общая и нижняя облачность в баллах и высота нижней границы облаков в метрах; квадратными скобками обозначены формы облаков: Ci - перистые, Cs - перисто-слоистые, Cc - перисто-кучевые, Ac - высококучевые, As - высокослоистые, Sc - слоисто-кучевые, Ns - слоисто-дождевые, Cu - кучевые, Cb - кучево-дождевые. Подробнее классификацию облаков см. в Атласе облаков (PDF).
T - Температура воздуха - температура, измеренная на высоте 2 м над землей.
Td - Температура точки росы - температура, при понижении до которой содержащийся в воздухе водяной пар достигнет насыщения.
f - Относительная влажность воздуха - влажноcть воздуха, измеренная на высоте 2 м над землей.
Te - Эффективная температура - температура, которую ощущает одетый по сезону человек в тени. Характеристика душности погоды. При расчете учитывается влияние влажности воздуха и скорости ветра на теплоощущения человека.
Tes - Эффективная температура на солнце - температура, которую ощущает человек, с поправкой на солнечный нагрев. Характеристика знойности погоды. Зависит от высоты солнца над горизонтом, облачности и скорости ветра. Ночью, в пасмурную погоду, а также при ветре 12 м/с и более поправка равна нулю.
P - Атмосферное давление - приведенное к уровню моря атмосферное давление.
Po - Атмосферное давление - измеренное на уровне метеостанции атмосферное давление.
Tmin - Минимальная температура - минимум температуры воздуха на высоте 2 м над землей.
Tmax - Максимальная температура - максимум температуры воздуха на высоте 2 м над землей.
R - Количество осадков - Количество выпавших осадков за период времени, мм. При наведении курсора мыши на число - период времени, за который выпало указанное количество осадков.
R24 - Количество осадков - Количество выпавших осадков за 24 часа, мм.
S - Снежный покров - Высота снежного покрова, см. При наведении курсора мыши на число - состояние снежного покрова и степень покрытия местности в баллах.